Regional Weather Roundup
Issued by NWS

Home | Current Version | Previous Version | Text Only | Print | Product List | Glossary Off
Versions: 1 2 3 4 5 6 7 8 9 10 11 12 13 14 15 16 17 18 19 20 21 22 23 24 25 26 27 28 29 30 31 32 33 34 35 36 37 38 39 40 41 42 43 44 45 46 47 48 49 50

000
ASUS45 KABQ 221510
RWRNM
NEW MEXICO REGIONAL WEATHER ROUNDUP
NATIONAL WEATHER SERVICE ALBUQUERQUE NM
900 AM MDT THU JUN 22 2017

NOTE: "FAIR" MEANS FEW OR NO CLOUDS BELOW 12,000 FEET AGL WITH NO
       SIGNIFICANT WEATHER OR OBSTRUCTIONS TO VISION.

      THIS PRODUCT IS RELEASED AS TWO VERSIONS.  ONE VERSION NEAR
      THE TOP OF THE HOUR CONTAINING PRELIMINARY DATA FROM ALBUQUERQUE
      AND OTHER STATIONS.  A FINAL VERSION WITH ADDITIONAL DATA IS
      ISSUED ABOUT 10 MINUTES AFTER THE HOUR.

NMZ501-503-504-510>518-221600-
NORTHWEST PLATEAU/NORTHCENTRAL MOUNTAINS

CITY           SKY/WX    TMP DP  RH WIND       PRES   REMARKS
FARMINGTON     FAIR      72  39  30 CALM      30.04R
LOS ALAMOS     FAIR      72  43  34 S5        30.18F
SANTA FE       FAIR      78  46  32 S6        30.10F
TAOS           FAIR      72  41  33 CALM        N/A
ANGEL FIRE     FAIR      62  45  54 CALM      30.28F

$$
NMZ402-403-502-505>509-221600-
WESTCENTRAL MOUNTAINS/SOUTHWEST MOUNTAINS

CITY           SKY/WX    TMP DP  RH WIND       PRES   REMARKS
GALLUP         FAIR      78  36  21 W3        30.13R
GRANTS         FAIR      74  33  21 CALM      30.14S
SILVER CITY    FAIR      83  48  29 NW8       30.06S

$$
NMZ407-409-411-412-221600-
SOUTHERN DESERTS

CITY           SKY/WX    TMP DP  RH WIND       PRES   REMARKS
DEMING         FAIR      84  51  31 SW7       29.96S
LAS CRUCES     FAIR      87  45  23 S3        29.98S
HOLLOMAN AFB   FAIR      85  49  28 SE7       29.95F
ALAMOGORDO     FAIR      84  46  26 SE3       29.96S
T OR C         FAIR      84  44  24 SW3       29.98S

$$
NMZ519>523-221600-
CENTRAL VALLEYS/CENTRAL HIGHLANDS

CITY           SKY/WX    TMP DP  RH WIND       PRES   REMARKS
ALBUQUERQUE    FAIR      81  48  31 N6        30.03F
DOUBLE EAGLE   SUNNY     81  46  30 VRB6      30.07F
MORIARTY ARPT  FAIR      76  46  34 SW3       30.11F
CLINES CORNERS FAIR      77  43  29 W12       30.15F
BELEN          FAIR      82  40  22 S8        30.01F
SOCORRO        FAIR      83  44  25 S7        30.00R

$$
NMZ524>526-539-540-221600-
SOUTHCENTRAL MOUNTAINS

CITY           SKY/WX    TMP DP  RH WIND       PRES   REMARKS
RUIDOSO        FAIR      77  45  31 NW7       30.16S

$$
NMZ527>531-221600-
NORTHEAST HIGHLANDS/NORTHEAST PLAINS

CITY           SKY/WX    TMP DP  RH WIND       PRES   REMARKS
LAS VEGAS      FAIR      73  44  35 CALM      30.11F
RATON          FAIR      69  53  56 NE10      30.07F
CLAYTON        FAIR      85  51  31 W20G29    29.90F

$$
NMZ532>537-221600-
EASTCENTRAL PLAINS

CITY           SKY/WX    TMP DP  RH WIND       PRES   REMARKS
TUCUMCARI      FAIR      79  59  50 W8        29.88F
CANNON AFB     FAIR      80  57  45 W10       29.92F
CLOVIS AIRPORT NOT AVBL

$$
NMZ028-029-538-221600-
SOUTHEAST PLAINS

CITY           SKY/WX    TMP DP  RH WIND       PRES   REMARKS
ROSWELL        FAIR      84  57  39 VRB5      29.87F
ARTESIA        FAIR      86  57  37 W9        29.87F
CARLSBAD       FAIR      83  60  45 CALM      29.85F
HOBBS          SUNNY     81  54  39 VRB3      29.90F


$$




USA.gov is the U.S. government's official web portal to all federal, state and local government web resources and services.